Location: Stara Lesna
(49.1528°N, 20.2911°E)
Time: 16:54:42
(UTC+02:00)

USA 81 - Pass Details

Date: 21 September 2019
Orbit: 785 x 788 km, 85.0° (Epoch: 08 October)

Event Time Altitude Azimuth Distance (km) Brightness Sun altitude
Exits shadow 04:54:02 - 201° (SSW) 2,418 6.2 -15.1°
Reaches altitude 10° 04:54:14 10° 201° (SSW) 2,340 6.1 -15.1°
Maximum altitude 04:59:24 56° 280° (W) 932 4.1 -14.3°
Drops below altitude 10° 05:04:36 10° 359° (N) 2,357 6.7 -13.4°
Sets 05:07:01 0° 4° (N) 3,291 7.6 -13.1°
